FW0887 Weather Reports


time (UTC)temp
C
wind
direction
speed
KPH
gust
KPH
rain 1hr
cm
rain 24hr
cm
rain mn
cm
humidity
%
barometer
mb
20200217023140 9 191 4.8 8.0 0.00 0.00 0.00 65 1014.7
20200217021643 9 175 4.8 8.0 0.00 0.00 0.00 63 1014.6
20200217020042 10 169 6.4 11.3 0.00 0.00 0.00 62 1014.5
20200217014600 10 165 4.8 9.7 0.00 0.00 0.00 59 1014.4
20200217013101 11 208 6.4 12.9 0.00 0.00 0.00 57 1014.5
20200217011537 11 202 4.8 11.3 0.00 0.00 0.00 58 1014.6
20200217010044 10 202 4.8 12.9 0.00 0.00 0.00 59 1014.6
20200217004539 11 208 6.4 16.1 0.00 0.00 0.00 58 1014.7
20200217003041 11 200 8.0 16.1 0.00 0.00 0.00 57 1014.5
20200217001555 11 212 8.0 14.5 0.00 0.00 0.00 56 1014.5
20200217000030 11 192 8.0 16.1 0.00 0.00 0.00 56 1014.4
20200216234523 11 196 8.0 14.5 0.00 0.00 0.00 56 1014.4
20200216233035 10 181 8.0 16.1 0.00 0.00 0.00 57 1014.5
20200216231630 10 200 8.0 16.1 0.00 0.00 0.00 58 1014.5
20200216230047 10 184 6.4 17.7 0.00 0.00 0.00 60 1014.4
20200216224518 9 194 4.8 12.9 0.00 0.00 0.00 62 1014.4
20200216223018 9 202 8.0 16.1 0.00 0.00 0.00 61 1014.4
20200216221512 9 203 9.7 16.1 0.00 0.00 0.00 61 1014.1
20200216220028 9 205 8.0 17.7 0.00 0.00 0.00 61 1014.0
20200216214540 8 193 8.0 16.1 0.00 0.00 0.00 63 1014.0
20200216213028 8 202 8.0 16.1 0.00 0.00 0.00 64 1014.2
20200216211516 8 191 9.7 16.1 0.00 0.00 0.00 63 1014.2
20200216210021 8 205 9.7 16.1 0.00 0.00 0.00 65 1014.2
20200216204508 8 226 9.7 16.1 0.00 0.00 0.00 67 1014.3
20200216203011 7 196 6.4 12.9 0.00 0.00 0.00 67 1014.2
20200216201506 7 224 6.4 12.9 0.00 0.00 0.00 67 1014.2
20200216200021 7 201 6.4 16.1 0.00 0.00 0.00 68 1014.2
20200216194504 7 217 6.4 11.3 0.00 0.00 0.00 69 1014.5
20200216193239 7 199 8.0 14.5 0.00 0.00 0.00 69 1014.8
20200216191744 7 209 6.4 11.3 0.00 0.00 0.00 70 1014.8
20200216190128 7 215 8.0 14.5 0.00 0.00 0.00 71 1015.0
20200216184635 7 202 4.8 12.9 0.00 0.00 0.00 70 1015.2
20200216183209 7 213 4.8 9.7 0.00 0.00 0.00 69 1015.4
20200216181737 7 213 6.4 11.3 0.00 0.00 0.00 69 1015.7
20200216180217 7 200 6.4 12.9 0.00 0.00 0.00 69 1015.5
20200216174610 7 215 8.0 12.9 0.00 0.00 0.00 69 1015.4
20200216173139 7 225 3.2 9.7 0.00 0.00 0.00 68 1015.5
20200216171750 7 227 6.4 9.7 0.00 0.00 0.00 68 1015.5
20200216170153 7 272 3.2 8.0 0.00 0.00 0.00 66 1015.7
20200216164653 8 221 0.0 1.6 0.00 0.00 0.00 65 1015.8
20200216163122 8 222 0.0 3.2 0.00 0.00 0.00 65 1015.8
20200216161638 8 222 0.0 1.6 0.00 0.00 0.00 64 1015.9
20200216160104 9 222 0.0 6.4 0.00 0.00 0.00 64 1016.1
20200216154632 9 222 1.6 11.3 0.00 0.00 0.00 64 1016.0
20200216153110 10 233 3.2 6.4 0.00 0.00 0.00 64 1015.8
20200216151705 10 222 4.8 16.1 0.00 0.00 0.00 59 1016.0
20200216150124 11 201 6.4 12.9 0.00 0.00 0.00 58 1016.3
20200216144653 11 182 9.7 16.1 0.00 0.00 0.00 54 1016.6
20200216143059 11 223 8.0 19.3 0.00 0.00 0.00 55 1016.7
20200216141620 10 214 8.0 20.9 0.00 0.00 0.00 56 1016.8
20200216140046 10 228 6.4 16.1 0.00 0.00 0.00 58 1017.0
20200216134627 10 203 8.0 16.1 0.00 0.00 0.00 59 1017.4
20200216133201 10 209 8.0 19.3 0.00 0.00 0.00 62 1017.5
20200216131544 10 226 9.7 17.7 0.00 0.00 0.00 58 1017.9
20200216130039 11 207 6.4 12.9 0.00 0.00 0.00 55 1017.8
20200216124556 10 182 6.4 9.7 0.00 0.00 0.00 56 1017.5
20200216123049 11 206 4.8 14.5 0.00 0.00 0.00 59 1018.2
20200216121545 10 198 6.4 16.1 0.00 0.00 0.00 57 1018.3
20200216120058 10 190 4.8 12.9 0.00 0.00 0.00 59 1018.4
20200216114520 10 191 9.7 16.1 0.00 0.00 0.00 59 1018.9
20200216113023 10 204 12.9 25.7 0.00 0.00 0.00 58 1019.4
20200216111530 10 190 6.4 14.5 0.00 0.00 0.00 59 1019.5
20200216110027 10 186 8.0 16.1 0.00 0.00 0.00 59 1019.9
20200216104521 9 192 8.0 19.3 0.00 0.00 0.00 59 1020.3
20200216103030 9 219 8.0 16.1 0.00 0.00 0.00 60 1020.1
20200216101507 8 190 8.0 12.9 0.00 0.00 0.00 62 1020.1
20200216100007 8 196 9.7 14.5 0.00 0.00 0.00 62 1020.3
20200216094502 7 219 6.4 16.1 0.00 0.00 0.00 63 1020.4
20200216093158 7 202 8.0 16.1 0.00 0.00 0.00 62 1020.5
20200216091710 7 201 8.0 16.1 0.00 0.00 0.00 64 1020.5
20200216090307 6 210 4.8 14.5 0.00 0.00 0.00 66 1020.7
20200216084739 6 175 6.4 9.7 0.00 0.00 0.00 67 1020.7
20200216083103 6 194 3.2 9.7 0.00 0.00 0.00 70 1020.8
20200216081653 6 177 8.0 12.9 0.00 0.00 0.00 68 1020.8
20200216080157 6 200 6.4 16.1 0.00 0.00 0.00 68 1020.6
20200216074619 5 190 8.0 16.1 0.00 0.00 0.00 69 1020.8
20200216073057 5 215 8.0 17.7 0.00 0.00 0.00 71 1020.7
20200216071620 4 198 8.0 12.9 0.00 0.00 0.00 75 1020.8
20200216070205 3 209 6.4 12.9 0.00 0.00 0.00 77 1020.6
20200216064622 4 220 6.4 11.3 0.00 0.00 0.00 76 1020.7
20200216063209 4 218 3.2 9.7 0.00 0.00 0.00 74 1020.6
20200216061626 5 201 4.8 11.3 0.00 0.00 0.00 73 1020.5
20200216060104 4 157 6.4 14.5 0.00 0.00 0.00 75 1020.4
20200216054607 3 187 3.2 11.3 0.00 0.00 0.00 80 1020.6
20200216053112 3 200 4.8 9.7 0.00 0.00 0.00 81 1020.7
20200216051557 3 192 4.8 9.7 0.00 0.00 0.00 80 1020.8
20200216050044 4 215 4.8 9.7 0.00 0.00 0.00 76 1020.6
20200216044615 5 196 4.8 11.3 0.00 0.00 0.00 74 1020.5
20200216043056 3 196 3.2 9.7 0.00 0.00 0.00 77 1020.3
20200216041551 4 229 4.8 11.3 0.00 0.00 0.00 77 1020.6
20200216040052 3 198 4.8 9.7 0.00 0.00 0.00 78 1020.6
20200216034538 4 194 3.2 8.0 0.00 0.00 0.00 77 1020.9
20200216033030 4 188 6.4 11.3 0.00 0.00 0.00 78 1020.9
20200216031604 3 179 3.2 8.0 0.00 0.00 0.00 81 1021.2
20200216030030 3 200 1.6 4.8 0.00 0.00 0.00 80 1021.4
20200216024608 3 210 1.6 4.8 0.00 0.00 0.00 79 1021.4